Terminal Aerodrome Forecast
Issued by NWS

Home | Current Version | Previous Version | Text Only | Print | Product List | Glossary On
Versions: 1 2 3 4 5 6 7 8 9 10 11 12 13 14 15 16 17 18 19 20
000
FTUS43 KILX 020900 AAA
TAFDEC
TAF AMD
KDEC 020958Z 0210/0306 21008KT P6SM VCSH SCT008 BKN035
      TEMPO 0210/0212 5SM -SHRA BR BKN008
     FM021200 VRB04KT 5SM BR SCT008 BKN025
     FM021400 27006KT P6SM SCT030 BKN250
     FM030000 VRB03KT P6SM SCT250=

USA.gov is the U.S. government's official web portal to all federal, state and local government web resources and services.